Wetbulb
49.91 51.87 53.01 54.45 55.67 56.71 57.64 58.29 59.13 59.49 58.38 55.55 53.20 51.43 49.42 49.14 48.17 47.38 46.41 45.25 45.23 44.68 43.12 43.24 42.56 42.89 42.06 40.55 40.95 40.43 39.94 40.02 40.41 39.03 38.37 39.73 41.35 39.77 40.61 41.56 42.31 42.73 43.07
48.68 50.33 51.58 52.63 53.86 54.27 55.29 55.55 55.60 55.97 56.07 55.04 53.01 51.16 49.31 47.58 46.84 45.61 43.53 42.85 42.35 42.58 42.45 40.84 40.38 40.16 40.22 38.96 38.42 38.07 38.03 39.14 39.14 36.34 35.57 33.93 35.92 37.95 40.18 39.49 40.74 39.30 40.42
48.46 47.77 48.68 49.93 50.79 51.40 52.50 53.41 53.62 53.96 53.83 53.19 52.24 50.86 49.38 47.32 45.37 43.72 42.25 41.22 41.21 41.20 40.63 39.95 39.15 38.83 38.64 37.29 36.71 36.77 36.48 36.28 37.46 37.28 35.07 31.55 30.40 34.30 36.99 37.64 37.53 38.10 38.22
48.78 48.57 48.29 48.33 49.38 49.74 51.30 52.47 53.15 53.07 52.62 51.96 50.80 48.49 45.98 44.07 43.91 43.59 41.78 40.44 39.90 39.59 40.02 39.47 38.44 37.81 37.80 36.10 36.33 38.09 35.92 35.80 34.52 36.30 38.98 35.11 33.70 30.75 29.69 34.71 36.27 36.78 38.00
49.05 48.37 48.63 49.59 49.73 48.97 48.13 48.15 48.81 49.07 48.98 48.76 47.43 46.10 43.89 43.27 42.88 41.06 39.79 38.87 38.09 38.61 39.01 38.33 37.25 36.67 36.73 35.51 35.32 34.77 34.35 34.94 34.25 34.11 34.44 32.92 33.06 32.30 30.10 28.45 30.44 35.44 36.24
48.04 48.71 49.55 49.57 48.14 47.35 46.54 46.11 46.36 45.56 45.74 45.91 45.16 43.81 41.93 40.24 39.14 37.94 37.18 37.26 37.26 37.09 37.06 37.73 35.96 35.47 35.52 35.06 34.94 34.39 33.81 33.36 33.40 33.12 33.14 32.33 31.00 31.74 30.69 29.53 30.52 31.14 33.38
47.89 48.23 48.14 47.70 46.81 45.81 45.19 45.22 44.54 43.17 42.88 42.22 41.42 40.36 38.74 37.72 36.88 36.22 35.31 35.11 35.10 34.76 34.44 35.16 34.30 34.06 34.44 34.99 34.52 33.50 32.87 32.81 31.76 31.58 31.72 32.51 33.06 32.89 32.83 31.69 30.37 29.50 32.38
47.79 47.85 47.83 47.08 46.03 45.62 44.33 43.51 42.49 41.35 40.97 40.05 39.06 38.34 37.90 36.85 36.06 35.57 34.67 34.15 34.06 33.77 34.03 34.03 33.74 33.65 34.05 33.88 33.29 32.80 32.43 32.67 31.29 30.43 30.68 32.07 32.22 33.14 33.29 31.77 30.09 27.79 28.92
47.02 47.21 47.57 47.32 45.77 44.21 43.20 42.33 41.37 40.23 39.54 38.26 36.87 35.87 35.87 35.53 34.61 34.12 34.16 33.70 33.58 36.24 33.65 33.32 32.87 32.88 32.97 32.94 32.17 31.21 31.01 30.89 30.67 30.38 30.13 30.22 32.08 32.74 32.83 32.74 32.03 29.13 24.83
46.66 47.14 47.57 47.11 45.85 44.24 42.78 41.53 40.73 39.47 38.29 36.92 35.55 35.11 34.26 34.25 33.81 33.45 32.74 32.91 32.95 33.16 32.91 32.58 32.28 32.21 32.08 31.90 31.09 30.67 31.33 30.48 30.16 32.12 29.23 29.64 31.60 31.92 32.37 31.91 31.15 30.80 28.53
46.61 47.03 47.44 47.38 45.51 43.64 42.19 40.49 39.40 37.99 36.75 36.02 34.53 33.86 33.85 33.70 33.19 32.66 32.40 32.27 32.31 32.28 32.34 32.39 31.99 31.57 31.40 31.15 30.26 29.99 30.74 29.88 29.05 28.81 29.96 30.09 31.00 30.67 31.25 31.44 31.23 30.44 29.30
47.00 47.30 47.31 45.84 44.31 43.21 41.16 39.71 38.09 37.18 36.25 35.18 34.25 33.81 33.65 33.00 32.10 31.84 32.03 32.33 31.62 32.12 31.88 31.92 31.69 31.69 31.39 30.84 29.76 29.23 29.39 28.52 28.12 28.65 28.94 29.40 31.58 29.67 30.20 30.31 29.84 29.37 29.75
46.56 46.59 45.72 44.40 43.71 42.25 40.61 39.02 37.25 35.96 35.23 34.72 33.80 33.11 32.31 31.78 31.13 31.25 31.85 32.35 31.85 31.33 31.56 31.39 30.87 31.11 31.35 30.71 30.19 29.84 29.17 28.64 28.44 28.49 28.65 29.06 28.93 28.41 29.21 29.50 29.19 29.86 30.97
47.00 46.03 44.67 43.73 43.17 41.87 40.75 38.51 35.93 35.37 34.66 34.06 32.90 31.72 31.39 31.11 31.07 31.65 32.05 31.99 31.82 31.01 30.83 30.89 31.00 31.05 30.89 31.10 31.00 30.04 28.92 28.19 28.77 29.21 29.17 29.02 28.91 28.71 29.40 30.04 29.97 31.00 29.67
46.11 45.69 44.44 43.23 42.48 40.96 39.32 37.18 35.19 34.29 33.92 32.94 32.07 31.46 31.58 31.81 31.83 31.64 31.33 31.60 31.09 30.86 30.78 30.10 30.02 30.02 30.69 32.94 32.22 31.78 30.01 27.73 27.23 27.94 29.24 29.89 31.55 34.25 33.76 31.65 29.92 29.45 28.92
46.16 45.68 44.81 43.52 42.04 40.32 38.20 36.45 34.18 33.29 33.21 32.09 31.61 32.13 31.92 31.97 31.49 31.09 30.98 30.12 29.85 29.57 28.74 28.45 28.62 28.44 31.64 35.56 36.29 34.99 30.61 28.13 27.27 27.32 28.78 29.38 31.78 31.65 34.80 34.72 35.09 34.27 30.84
44.98 45.18 44.81 43.35 41.34 39.42 37.38 34.59 32.92 32.48 31.81 31.44 31.92 32.21 31.93 31.49 31.27 30.66 29.71 28.73 27.53 26.77 26.76 26.91 27.04 26.64 26.63 34.87 35.77 35.86 30.99 27.61 27.08 27.60 28.02 28.76 30.79 31.39 29.75 32.74 34.60 34.26 35.50
45.40 45.42 44.55 41.46 39.63 37.02 35.52 33.35 32.76 31.85 31.62 31.29 31.30 31.64 31.59 30.58 30.00 28.92 27.68 26.02 26.05 25.94 25.98 26.05 26.07 25.46 28.13 34.16 34.81 35.20 29.73 27.64 27.13 27.40 27.86 27.90 28.46 30.24 30.93 30.31 29.90 31.33 30.03
43.43 42.70 40.58 38.94 37.22 35.03 33.84 32.86 31.72 31.29 31.00 30.57 30.59 30.74 30.30 29.26 28.33 26.83 25.27 25.23 25.34 25.29 25.19 25.47 25.17 24.08 24.44 32.88 34.09 33.10 28.84 28.18 27.73 28.73 29.12 30.13 29.24 32.15 33.65 30.36 29.79 27.53 26.82
40.89 38.48 37.40 35.67 33.69 32.65 33.16 31.74 29.99 30.06 29.63 29.76 30.01 30.13 29.58 28.30 26.68 25.20 24.77 25.42 25.49 25.51 25.64 25.70 24.66 27.38 24.65 30.83 33.15 32.28 28.85 27.14 27.58 28.34 29.22 31.86 30.61 32.78 34.37 29.76 27.42 23.63 23.89
37.27 37.02 35.89 33.37 32.40 32.11 32.57 30.65 29.04 28.19 29.27 29.62 29.54 29.32 28.62 27.22 25.71 25.01 25.25 25.33 24.46 24.01 22.73 22.59 22.85 23.26 24.99 26.61 32.47 32.84 29.22 27.84 28.05 27.98 27.05 27.71 32.05 34.57 32.57 31.79 25.37 25.39 28.47
36.02 35.22 33.62 32.57 31.90 32.32 31.36 28.09 26.98 27.98 28.61 28.82 28.81 27.91 26.41 27.29 28.58 25.72 25.13 24.94 23.36 21.73 21.18 20.99 21.96 23.27 24.25 29.84 30.96 32.59 32.65 32.44 28.86 27.33 27.17 27.98 33.23 31.11 30.31 28.35 29.79 30.13 28.68
34.16 33.80 32.89 31.37 30.28 29.51 29.24 26.43 26.53 28.02 28.02 27.21 26.11 25.54 25.61 26.18 26.24 25.21 24.48 23.56 22.26 21.11 22.06 22.07 22.01 23.98 25.64 24.28 30.74 32.18 32.68 32.81 29.41 28.31 30.54 31.21 29.82 28.74 26.58 27.99 28.57 28.07 22.58
33.69 32.84 31.40 28.79 27.03 27.60 27.74 26.99 27.28 27.82 26.60 25.06 24.41 24.79 24.28 26.24 24.97 24.63 24.41 23.02 21.40 21.17 22.20 22.58 23.63 23.63 24.80 25.34 26.53 28.40 28.80 30.45 29.23 30.21 26.99 27.16 26.89 26.91 26.05 24.63 24.26 23.41 23.35
32.53 31.60 30.04 28.33 26.57 26.38 26.32 26.58 26.92 26.52 24.55 24.20 23.71 23.24 23.96 23.55 22.84 23.22 23.06 23.17 23.39 25.27 25.49 24.83 24.81 23.75 23.98 26.12 30.96 30.21 28.09 28.52 29.25 27.98 23.44 21.96 21.60 20.78 21.43 21.95 22.45 22.82 23.04
32.84 31.30 29.39 27.09 26.17 25.75 25.73 26.20 26.73 25.71 24.13 23.07 22.86 22.72 22.82 22.21 21.91 21.17 22.20 28.45 30.07 30.94 30.89 30.79 29.01 27.52 30.32 31.28 31.16 31.04 31.28 30.90 29.88 24.02 20.46 19.85 20.23 20.09 20.34 20.40 21.00 21.88 22.65
MSLP
1008.38 1008.30 1008.52 1008.84 1009.14 1009.22 1009.32 1009.40 1009.50 1009.89 1010.12 1010.98 1011.86 1012.54 1013.33 1013.96 1014.51 1014.71 1014.96 1015.15 1015.25 1015.35 1015.54 1015.72 1015.82 1015.81 1015.91 1016.03 1015.93 1015.71 1015.68 1015.38 1015.07 1014.76 1014.03 1013.30 1012.72 1012.80 1012.61 1012.47 1012.14 1011.86 1011.58
1008.46 1008.73 1009.00 1009.43 1009.58 1009.87 1009.91 1009.83 1010.10 1010.30 1010.76 1011.35 1012.14 1012.76 1013.66 1014.47 1014.99 1015.35 1015.58 1015.67 1015.73 1015.72 1015.83 1016.07 1016.18 1016.21 1016.22 1016.24 1016.28 1016.26 1016.26 1015.97 1015.66 1015.75 1014.97 1014.39 1013.52 1012.91 1013.16 1012.76 1012.29 1012.03 1011.81
1008.22 1008.80 1009.46 1010.00 1010.20 1010.48 1010.45 1010.47 1010.63 1010.89 1011.33 1011.79 1012.44 1013.25 1014.09 1014.90 1015.58 1015.92 1016.13 1016.17 1015.99 1016.05 1016.13 1016.22 1016.33 1016.43 1016.48 1016.63 1016.61 1016.54 1016.60 1016.60 1016.09 1015.90 1016.02 1015.76 1015.43 1014.42 1013.12 1013.02 1012.64 1012.33 1012.13
1007.99 1008.46 1009.42 1010.34 1010.50 1010.81 1010.89 1011.02 1011.17 1011.45 1011.78 1012.12 1012.80 1013.61 1014.36 1015.26 1015.70 1015.99 1016.30 1016.44 1016.27 1016.32 1016.40 1016.49 1016.54 1016.67 1016.74 1016.81 1016.78 1016.69 1016.67 1016.60 1016.59 1016.10 1016.00 1016.38 1016.32 1015.76 1013.85 1013.17 1012.97 1012.47 1012.07
1007.13 1008.23 1009.18 1010.20 1010.70 1010.98 1011.33 1011.60 1011.77 1012.01 1012.24 1012.55 1013.15 1014.01 1014.81 1015.39 1015.65 1016.18 1016.52 1016.67 1016.76 1016.70 1016.72 1016.78 1016.84 1016.88 1016.88 1016.90 1016.84 1016.74 1016.71 1016.65 1016.71 1016.63 1016.31 1016.05 1015.81 1015.57 1015.26 1013.28 1012.95 1012.72 1012.11
1007.41 1008.40 1009.06 1010.21 1011.04 1011.31 1011.70 1012.02 1012.31 1012.76 1012.80 1013.14 1013.67 1014.33 1015.06 1015.65 1016.12 1016.56 1016.85 1017.02 1017.16 1017.20 1017.07 1016.93 1017.01 1016.97 1016.96 1016.92 1016.86 1016.78 1016.65 1016.58 1016.56 1016.49 1016.41 1016.33 1016.13 1015.50 1014.98 1013.78 1012.67 1012.12 1011.72
1007.16 1008.28 1009.11 1010.37 1011.19 1011.69 1011.99 1012.35 1012.67 1013.30 1013.44 1013.80 1014.34 1014.86 1015.42 1015.87 1016.44 1016.82 1017.13 1017.30 1017.32 1017.36 1017.34 1017.24 1017.19 1017.13 1016.97 1016.82 1016.71 1016.63 1016.55 1016.45 1016.45 1016.37 1016.22 1015.92 1015.64 1015.31 1014.83 1014.08 1012.59 1011.55 1011.08
1007.09 1008.11 1009.03 1010.28 1011.21 1011.79 1012.09 1012.53 1013.05 1013.58 1013.92 1014.37 1014.92 1015.24 1015.64 1016.17 1016.64 1016.94 1017.22 1017.35 1017.36 1017.42 1017.38 1017.31 1017.21 1017.13 1016.95 1016.85 1016.70 1016.64 1016.51 1016.34 1016.26 1016.14 1015.86 1015.54 1015.29 1014.98 1014.62 1014.04 1013.20 1011.03 1010.60
1006.94 1007.88 1009.04 1010.11 1011.14 1011.79 1012.24 1012.68 1013.28 1013.80 1014.33 1014.86 1015.29 1015.70 1016.08 1016.51 1016.96 1017.15 1017.22 1017.35 1017.38 1017.37 1017.33 1017.31 1017.34 1017.22 1017.06 1016.96 1016.82 1016.66 1016.50 1016.30 1016.06 1015.84 1015.57 1015.40 1014.95 1014.59 1014.16 1013.72 1013.31 1012.52 1010.34
1006.87 1007.87 1008.84 1009.96 1010.96 1011.67 1012.27 1012.84 1013.40 1013.95 1014.59 1015.10 1015.57 1016.00 1016.41 1016.79 1017.03 1017.15 1017.32 1017.36 1017.41 1017.44 1017.36 1017.40 1017.40 1017.32 1017.22 1017.06 1016.86 1016.65 1016.37 1016.17 1015.93 1015.64 1015.59 1015.27 1014.83 1014.36 1013.82 1013.29 1012.89 1012.45 1011.55
1006.43 1007.58 1008.70 1009.82 1010.79 1011.70 1012.33 1012.95 1013.53 1014.17 1014.85 1015.36 1015.83 1016.26 1016.67 1016.90 1017.10 1017.26 1017.33 1017.43 1017.48 1017.49 1017.51 1017.52 1017.47 1017.37 1017.19 1016.95 1016.71 1016.43 1016.04 1015.88 1015.70 1015.48 1015.24 1014.95 1014.53 1013.96 1013.41 1012.89 1012.28 1011.64 1011.23
1006.34 1007.49 1008.57 1009.70 1010.82 1011.76 1012.37 1013.01 1013.61 1014.30 1015.01 1015.53 1016.01 1016.49 1016.76 1016.98 1017.22 1017.34 1017.41 1017.46 1017.54 1017.59 1017.60 1017.52 1017.40 1017.18 1016.91 1016.61 1016.32 1016.09 1015.77 1015.59 1015.46 1015.18 1014.90 1014.53 1014.02 1013.61 1013.00 1012.28 1011.61 1011.04 1010.43
1006.42 1007.53 1008.67 1009.72 1010.76 1011.62 1012.40 1013.09 1013.75 1014.50 1015.18 1015.61 1016.19 1016.70 1017.00 1017.18 1017.36 1017.46 1017.51 1017.56 1017.61 1017.57 1017.48 1017.38 1017.22 1016.96 1016.62 1016.24 1015.90 1015.65 1015.43 1015.28 1015.06 1014.82 1014.64 1014.25 1013.69 1013.03 1012.34 1011.63 1010.88 1010.13 1009.39
1006.11 1007.42 1008.73 1009.74 1010.68 1011.56 1012.38 1013.19 1014.00 1014.62 1015.26 1015.81 1016.46 1016.90 1017.19 1017.31 1017.43 1017.53 1017.60 1017.59 1017.53 1017.50 1017.43 1017.26 1017.02 1016.68 1016.28 1015.94 1015.57 1015.29 1014.99 1014.74 1014.55 1014.41 1014.20 1013.78 1013.17 1012.39 1011.52 1010.69 1010.01 1009.33 1008.67
1006.05 1007.00 1008.17 1009.39 1010.50 1011.53 1012.45 1013.31 1014.16 1014.80 1015.37 1016.08 1016.63 1017.03 1017.18 1017.30 1017.45 1017.54 1017.52 1017.47 1017.48 1017.45 1017.35 1017.15 1016.83 1016.43 1016.10 1015.63 1015.18 1014.82 1014.42 1014.26 1014.16 1013.95 1013.64 1013.14 1012.44 1011.60 1010.82 1010.05 1009.36 1008.73 1007.90
1006.03 1007.10 1008.20 1009.25 1010.32 1011.29 1012.37 1013.40 1014.32 1015.00 1015.58 1016.27 1016.79 1017.05 1017.23 1017.39 1017.49 1017.48 1017.53 1017.56 1017.52 1017.42 1017.26 1017.05 1016.73 1016.32 1015.91 1015.44 1014.90 1014.35 1013.92 1013.76 1013.70 1013.39 1012.84 1012.40 1011.76 1011.03 1010.25 1009.69 1008.82 1007.96 1007.02
1005.96 1007.02 1007.98 1009.03 1010.13 1011.17 1012.19 1013.49 1014.40 1015.13 1015.84 1016.43 1016.85 1017.12 1017.30 1017.50 1017.55 1017.61 1017.69 1017.73 1017.72 1017.57 1017.34 1016.98 1016.61 1016.28 1015.80 1015.18 1014.52 1013.95 1013.50 1013.34 1013.11 1012.71 1012.19 1011.57 1011.01 1010.43 1009.72 1008.70 1007.83 1007.49 1006.92
1006.01 1007.00 1007.97 1009.19 1010.32 1011.42 1012.57 1013.60 1014.53 1015.31 1015.95 1016.51 1016.90 1017.17 1017.33 1017.46 1017.56 1017.78 1017.98 1017.97 1017.77 1017.60 1017.29 1016.88 1016.48 1016.17 1015.64 1014.99 1014.32 1013.63 1013.18 1012.92 1012.60 1012.20 1011.72 1011.12 1010.41 1009.91 1008.80 1007.72 1007.00 1006.53 1006.06
1006.28 1007.28 1008.24 1009.42 1010.75 1011.89 1012.97 1013.95 1014.92 1015.56 1016.21 1016.71 1017.02 1017.20 1017.32 1017.53 1017.80 1018.03 1018.11 1017.92 1017.74 1017.44 1017.03 1016.63 1016.41 1016.15 1015.63 1014.89 1014.10 1013.46 1013.08 1012.62 1012.12 1011.65 1011.18 1010.74 1009.96 1009.12 1007.92 1007.07 1006.31 1005.91 1005.51
1007.43 1008.38 1009.40 1010.46 1011.46 1012.73 1013.39 1014.29 1015.28 1015.91 1016.54 1016.86 1017.06 1017.18 1017.38 1017.64 1017.91 1018.09 1018.04 1017.75 1017.48 1017.15 1016.82 1016.63 1016.35 1015.94 1015.37 1014.83 1014.22 1013.61 1013.04 1012.25 1011.70 1011.20 1010.73 1010.19 1009.36 1008.25 1007.36 1006.58 1006.00 1005.52 1004.58
1008.93 1009.68 1010.56 1011.49 1012.38 1013.14 1013.83 1014.84 1015.66 1016.34 1016.67 1016.90 1017.11 1017.29 1017.47 1017.69 1017.82 1017.87 1017.76 1017.57 1017.20 1017.01 1016.98 1016.73 1016.14 1015.63 1015.18 1014.70 1014.03 1013.38 1012.63 1012.07 1011.33 1010.82 1009.99 1009.38 1008.55 1007.70 1006.78 1006.14 1005.90 1005.03 1003.83
1010.11 1010.68 1011.48 1012.45 1013.15 1013.71 1014.39 1015.49 1016.22 1016.60 1016.84 1017.10 1017.29 1017.48 1017.69 1017.74 1017.69 1017.80 1017.51 1017.21 1017.29 1017.18 1016.75 1016.25 1015.73 1015.26 1014.84 1014.39 1013.69 1012.93 1012.24 1011.59 1010.99 1010.35 1009.63 1008.81 1007.96 1007.21 1006.66 1006.15 1005.39 1004.42 1003.73
1010.90 1011.60 1012.30 1013.22 1013.94 1014.44 1014.98 1015.93 1016.47 1016.77 1017.08 1017.35 1017.57 1017.78 1017.79 1017.80 1017.75 1017.64 1017.52 1017.46 1017.28 1016.91 1016.42 1015.90 1015.39 1014.84 1014.30 1013.83 1013.13 1012.34 1011.66 1010.93 1010.28 1010.13 1009.16 1008.52 1007.82 1007.28 1006.66 1005.99 1005.16 1004.42 1003.91
1011.68 1012.37 1013.11 1013.99 1014.76 1015.13 1015.57 1016.06 1016.59 1016.88 1017.30 1017.62 1017.81 1017.92 1018.00 1017.87 1017.71 1017.65 1017.63 1017.48 1017.09 1016.62 1016.12 1015.62 1015.07 1014.47 1013.86 1013.24 1012.49 1011.64 1011.03 1010.49 1010.17 1009.58 1008.98 1008.42 1007.94 1007.43 1006.69 1005.80 1005.01 1004.40 1003.69
1012.29 1012.94 1013.70 1014.49 1015.24 1015.59 1016.10 1016.52 1016.82 1017.17 1017.63 1017.86 1018.03 1018.08 1018.02 1017.99 1017.98 1017.89 1017.66 1017.35 1016.87 1016.40 1015.83 1015.43 1014.92 1014.18 1013.33 1012.73 1012.01 1011.41 1010.77 1010.23 1009.76 1008.96 1008.90 1008.43 1007.90 1007.19 1006.39 1005.59 1004.80 1004.01 1003.20
1012.73 1013.49 1014.24 1014.91 1015.57 1015.98 1016.44 1016.81 1017.05 1017.43 1017.86 1018.03 1018.06 1018.06 1018.05 1018.06 1018.03 1017.85 1017.41 1017.02 1016.55 1016.14 1015.77 1015.29 1014.68 1014.03 1013.47 1012.69 1011.97 1011.36 1010.76 1010.15 1009.68 1009.30 1009.10 1008.56 1007.93 1007.16 1006.30 1005.45 1004.52 1003.73 1002.86
Wind_Speed
7 7 6 6 6 5 6 6 8 8 10 8 7 6 5 6 6 7 8 7 6 7 6 5 5 5 5 4 5 3 4 3 6 3 5 4 5 4 10 8 7 8 7
8 7 7 6 7 6 6 7 8 9 8 7 5 5 5 5 5 4 6 6 7 6 6 5 5 6 4 6 5 5 4 3 5 3 2 5 5 6 13 5 10 5 9
14 9 8 7 7 8 7 8 8 11 10 12 9 8 7 4 4 4 4 4 6 6 6 6 5 5 4 4 3 4 5 3 3 6 3 5 3 12 3 11 4 14 8
10 11 11 7 8 6 7 8 8 11 9 9 10 9 5 5 2 4 3 4 6 6 6 6 5 5 3 5 3 4 2 3 4 3 3 2 4 4 7 3 13 6 11
18 16 14 9 7 7 7 7 8 8 7 8 8 7 7 4 3 4 6 6 5 6 6 5 5 4 3 3 4 4 5 2 1 2 3 3 2 5 5 12 4 10 8
14 14 13 11 7 7 7 7 9 7 8 8 8 9 9 7 5 4 4 3 3 3 5 5 4 4 4 3 3 3 4 3 2 2 3 2 4 7 8 13 14 14 9
17 17 16 12 8 8 8 8 9 8 8 9 9 8 8 8 8 5 4 4 2 2 3 3 4 3 3 4 3 3 4 4 3 4 3 3 5 4 8 10 14 13 11
16 16 15 12 9 9 8 9 9 9 8 8 8 7 8 5 4 5 4 3 2 2 2 3 4 5 5 5 4 3 3 4 5 7 6 6 4 5 8 10 11 15 14
17 17 15 13 9 8 9 9 9 8 8 8 7 7 7 7 6 6 4 3 2 2 4 4 4 5 6 6 6 4 5 5 5 6 5 4 6 7 7 7 8 10 16
15 15 14 13 8 8 8 9 8 9 7 8 7 6 7 6 6 5 5 4 3 3 4 4 5 6 6 6 5 4 5 5 4 6 6 5 8 9 9 8 5 7 11
17 15 14 13 10 8 10 9 8 9 8 7 7 7 6 6 6 5 4 3 3 4 5 5 6 6 6 6 5 6 6 6 5 4 7 10 12 10 9 9 9 9 6
15 14 15 13 12 11 10 10 8 8 7 7 7 7 6 6 6 5 4 3 4 4 5 5 5 5 6 6 6 6 6 5 6 6 6 12 10 13 12 9 11 8 11
15 14 14 13 13 10 10 9 8 8 7 7 7 6 6 6 5 3 3 4 4 4 5 5 6 6 6 6 6 6 6 6 6 5 7 12 13 13 11 12 10 10 10
17 14 13 13 11 10 10 8 8 7 7 7 7 6 5 4 3 2 3 3 3 5 6 6 6 6 7 7 7 6 6 6 5 5 7 11 12 14 14 12 12 11 13
16 16 16 13 11 11 9 9 8 7 7 7 6 6 4 3 3 3 3 4 4 5 6 6 7 7 6 7 11 10 7 5 6 5 8 11 16 25 21 14 15 16 14
15 14 14 14 13 12 11 11 9 7 8 7 6 5 4 3 2 2 3 5 6 6 6 6 6 7 7 18 22 19 9 5 5 8 11 10 17 17 26 28 30 25 18
13 15 15 13 12 12 13 12 9 8 7 7 6 5 4 3 2 3 4 5 6 6 6 7 6 7 7 20 23 23 10 5 6 9 10 12 10 18 15 23 27 21 25
14 13 12 10 11 10 11 11 9 8 7 6 5 4 3 2 3 4 4 5 4 5 5 6 6 7 8 21 23 23 9 7 7 8 9 11 13 14 21 20 17 14 13
8 8 8 12 12 13 12 12 9 7 7 6 5 4 3 2 3 4 5 5 4 4 4 5 7 7 8 20 22 20 9 11 11 8 8 12 15 23 32 21 16 15 10
11 13 13 13 14 10 11 11 8 7 6 5 5 3 2 2 3 4 5 3 3 5 5 7 6 10 8 15 22 19 10 11 10 10 11 19 22 32 32 20 15 13 16
13 12 12 11 11 9 10 10 7 7 5 5 4 2 2 2 3 4 3 4 5 6 6 6 6 6 7 9 21 22 11 9 10 10 10 10 29 29 30 29 14 18 21
11 11 11 10 7 8 10 8 7 6 5 4 3 2 2 3 3 4 5 6 6 6 6 6 6 4 6 12 17 23 22 21 12 12 11 14 25 30 29 22 28 29 24
9 8 10 9 6 7 8 8 6 6 5 4 2 1 3 3 3 4 6 5 5 5 7 6 7 7 6 5 17 22 23 21 15 11 20 23 27 27 18 24 27 24 11
9 8 10 9 7 6 7 7 6 6 5 4 1 2 2 4 5 4 4 4 4 5 6 6 8 8 8 7 8 9 10 16 13 16 10 18 21 21 20 16 14 10 10
6 7 8 8 7 7 7 6 6 6 4 3 1 2 3 4 5 4 4 4 5 6 9 7 7 9 10 10 22 20 14 13 16 19 10 10 10 11 11 11 12 11 11
6 6 7 8 7 7 6 6 6 5 4 2 2 3 2 3 3 4 5 8 13 16 17 19 15 9 19 25 26 27 27 27 28 10 10 10 10 11 12 12 12 12 15
Wind_Direction
169 142 126 110 114 95 116 113 111 111 109 106 105 92 92 89 78 75 73 66 65 60 60 56 45 37 53 36 25 353 359 336 349 357 320 313 311 42 353 332 321 328 343
145 142 120 95 78 82 82 79 86 90 99 103 102 105 108 83 93 88 75 75 70 63 69 64 51 47 51 34 29 34 353 320 10 348 310 341 324 3 320 325 320 342 339
156 141 118 113 103 93 91 95 98 102 105 111 107 98 85 67 73 73 85 79 78 70 68 61 62 56 58 44 26 26 29 335 319 10 69 350 319 324 327 315 330 330 319
146 138 130 125 118 108 98 94 98 110 112 118 117 125 129 134 149 134 128 101 80 65 57 57 58 60 54 40 7 25 26 16 343 346 39 185 238 300 317 335 313 304 324
154 145 134 130 119 111 103 99 96 95 108 108 116 119 112 114 106 101 108 93 72 62 57 53 51 51 47 28 28 14 9 4 317 338 317 306 290 239 266 302 306 299 305
143 133 125 120 120 113 105 98 97 88 90 101 107 115 121 118 103 94 90 88 90 54 42 40 35 31 30 12 1 2 354 335 320 299 294 275 306 307 309 301 306 301 300
142 139 134 134 136 131 123 112 105 96 93 94 95 105 107 102 106 103 106 98 73 41 24 30 20 7 353 356 354 346 335 323 319 313 286 278 282 271 297 294 300 297 304
145 144 140 139 142 141 134 119 113 111 101 98 98 96 99 101 100 107 103 95 85 92 24 22 21 360 353 346 348 334 331 327 322 305 295 295 279 291 292 292 298 303 301
150 146 142 146 152 146 141 133 125 116 110 111 104 99 101 102 108 102 96 93 63 65 32 23 3 349 345 344 344 339 325 315 294 293 292 298 310 303 286 283 284 290 306
147 148 148 149 152 145 136 126 126 126 127 117 114 111 113 113 111 97 86 73 47 32 19 1 351 344 340 338 339 323 307 307 305 318 334 317 317 306 298 289 280 279 287
155 151 149 151 146 136 139 134 128 127 124 120 116 114 113 108 97 92 79 64 47 19 8 351 343 334 330 326 317 304 293 308 323 315 317 314 315 303 304 296 288 281 271
150 148 149 146 144 148 140 141 133 129 131 129 121 120 111 98 91 81 66 50 28 8 353 341 329 317 307 303 303 301 303 307 304 301 316 315 311 304 297 292 290 278 281
147 148 147 150 152 147 144 140 134 133 133 126 122 111 104 96 91 78 50 29 11 350 332 325 314 305 299 300 296 285 299 285 283 300 311 311 308 302 299 291 287 287 286
155 149 149 154 153 149 147 137 134 135 131 120 116 114 112 111 108 75 38 14 347 329 320 311 304 298 304 308 292 292 283 280 298 289 298 304 300 296 297 299 299 308 304
160 162 160 157 153 148 141 132 133 131 127 116 116 126 126 119 95 56 11 336 333 321 314 311 310 313 320 318 324 317 302 288 281 279 302 298 300 310 310 315 313 304 300
162 157 156 155 157 152 143 137 137 131 119 120 129 134 121 99 77 22 345 338 333 326 317 319 312 315 322 322 322 323 316 294 284 293 300 293 302 301 311 309 306 303 310
156 157 159 157 153 149 142 139 135 124 120 127 137 132 120 91 34 1 352 341 326 322 316 314 319 316 309 322 325 323 318 291 277 291 291 298 301 309 302 300 307 310 300
154 152 150 135 131 123 123 123 123 123 127 131 135 132 120 95 28 1 340 327 309 311 312 314 318 311 310 324 325 326 319 300 281 274 286 292 307 307 307 308 312 302 299
112 109 109 122 118 121 124 122 121 121 123 134 135 125 111 53 5 332 316 303 292 301 302 314 311 307 300 328 334 333 331 320 312 302 307 314 311 308 315 319 314 318 309
98 105 105 107 110 120 124 121 125 124 128 135 134 120 93 33 321 302 298 271 278 299 322 311 299 308 323 334 333 337 319 316 318 323 313 311 316 314 319 324 325 318 314
100 98 99 111 123 122 122 122 121 127 138 132 123 98 58 334 283 295 279 292 325 326 307 288 289 299 314 322 332 331 327 318 321 311 315 312 314 318 327 330 333 310 319
98 102 108 113 112 110 115 116 121 142 131 125 110 57 349 304 316 305 319 338 328 307 299 295 297 283 281 305 321 325 325 321 319 318 314 308 324 329 330 332 318 327 330
106 108 114 106 93 108 121 122 149 134 127 110 85 10 319 320 336 345 335 325 315 307 312 312 306 311 307 274 303 315 313 327 327 324 316 332 330 331 330 322 327 326 313
121 118 115 109 101 111 113 122 134 126 112 108 78 331 341 358 355 348 320 309 309 313 312 312 321 315 318 314 307 313 327 329 335 317 329 331 331 327 322 320 318 315 312
121 125 126 126 126 114 114 123 123 116 117 123 39 14 13 8 335 318 305 314 295 322 329 322 319 322 325 322 329 335 332 331 329 339 336 328 325 321 320 319 318 317 315
123 122 125 125 133 124 125 126 125 126 135 106 33 353 351 329 317 310 313 327 335 331 328 328 328 327 325 328 333 330 335 337 337 341 326 323 319 319 320 319 318 318 320